This demonstration page uses our WeatherBlox Daily Observations layout. Learn more.

Left ArrowRight Arrow

39.51506, -84.39828

Hourly Observations for April 22, 2021

Temp ( °F °C ) Dew Point ( °F °C ) Humidity (%) Winds ( mph kmh ) Pressure ( in mb ) Visibility ( mi km ) Precip ( " mm )
12:15 am 00:15 Partly Cloudy with Mist and Fog 32 0 N/A N/A WSW 6 9 30.18 1022 2.5 4.02335 0 0
12:35 am 00:35 Mostly Cloudy with Mist and Fog 32 0 N/A N/A W 6 9 30.18 1022 2.5 4.02335 0 0
12:55 am 00:55 Clear 32 0 N/A N/A SSW 5 7 30.18 1022 7 11.26538 0 0
1:15 am 01:15 Clear with Mist and Fog 30 -1 N/A N/A Calm 30.18 1022 3.5 5.63269 0 0
1:35 am 01:35 Mostly Cloudy with Freezing Fog 30 -1 N/A N/A Calm 30.18 1022 0.5 0.80467 0 0
1:55 am 01:55 Mostly Cloudy with Freezing Fog 30 -1 N/A N/A SSW 3 6 30.18 1022 0.25 0.402335 0 0
2:15 am 02:15 Mostly Cloudy with Freezing Fog 28 -2 N/A N/A Calm 30.17 1022 N/A 0 0
2:35 am 02:35 Cloudy with Freezing Fog 28 -2 N/A N/A Calm 30.16 1021 N/A 0 0
2:55 am 02:55 Cloudy with Freezing Fog 30 -1 N/A N/A Calm 30.16 1021 0.25 0.402335 0 0
3:10 am 03:10 Cloudy with Freezing Fog 30 -1 N/A N/A Calm 30.16 1021 0.25 0.402335 0 0
3:35 am 03:35 Cloudy with Freezing Fog 30 -1 N/A N/A Calm 30.16 1021 N/A 0 0
3:55 am 03:55 Cloudy with Freezing Fog 30 -1 N/A N/A SSW 3 6 30.16 1021 0.25 0.402335 0 0
4:15 am 04:15 Cloudy with Mist and Fog 32 0 N/A N/A SSW 3 6 30.16 1021 1.5 2.41401 0 0
4:35 am 04:35 Cloudy with Mist and Fog 32 0 N/A N/A SSW 5 7 30.16 1021 3 4.82802 0 0
4:55 am 04:55 Cloudy with Haze 32 0 N/A N/A SSW 3 6 30.16 1021 5 8.0467 0 0
5:15 am 05:15 Cloudy with Haze 32 0 N/A N/A SW 6 9 30.17 1022 5 8.0467 0 0
5:35 am 05:35 Cloudy 32 0 N/A N/A SW 7 11 30.16 1021 7 11.26538 0 0
5:55 am 05:55 Cloudy 32 0 N/A N/A SW 6 9 30.17 1022 7 11.26538 0 0
6:15 am 06:15 Cloudy 32 0 N/A N/A SW 7 11 30.17 1022 10 16.0934 0 0
6:35 am 06:35 Cloudy 32 0 N/A N/A WSW 3 6 30.17 1022 10 16.0934 0 0
6:55 am 06:55 Cloudy 32 0 N/A N/A Calm 30.17 1022 10 16.0934 0 0
7:15 am 07:15 Cloudy 34 1 N/A N/A Calm 30.17 1022 10 16.0934 0 0
7:35 am 07:35 Cloudy with Light Rain 34 1 N/A N/A Calm 30.18 1022 7 11.26538 0 0
7:55 am 07:55 Cloudy 33 0.8 33 0.8 100 100 WSW 3 6 30.18 1022 10 16.0934 0 0
8:15 am 08:15 Cloudy 34 1 34 1 100 100 WSW 7 11 30.19 1022 10 16.0934 0 0
8:35 am 08:35 Mostly Cloudy 34 1 N/A N/A WSW 5 7 30.19 1022 10 16.0934 0 0
8:55 am 08:55 Mostly Cloudy 35 1.8 35 1.6 99 99 WNW 7 11 30.2 1023 10 16.0934 0 0
9:15 am 09:15 Mostly Cloudy 36 2.1 35 1.6 97 97 WNW 5 7 30.19 1022 10 16.0934 0 0
9:35 am 09:35 Sunny 38 3.2 36 2.1 93 93 WSW 5 7 30.19 1022 10 16.0934 0 0
9:55 am 09:55 Partly Cloudy 40 4.4 37 2.7 89 89 W 6 9 30.18 1022 10 16.0934 0 0
10:15 am 10:15 Mostly Cloudy 41 4.8 36 2.2 83 83 W 7 11 30.18 1022 10 16.0934 0 0
10:35 am 10:35 Cloudy 42 5.5 36 2.4 81 81 W 8 13 30.18 1022 10 16.0934 0 0
10:55 am 10:55 Mostly Cloudy 42 5.4 35 1.9 78 78 WNW 9 15 30.19 1022 10 16.0934 0 0
11:15 am 11:15 Mostly Cloudy 44 6.9 29 -1.9 54 54 NW 12 19 30.2 1023 10 16.0934 0 0
11:35 am 11:35 Cloudy 44 6.6 34 0.9 67 67 N 8 13 30.2 1023 10 16.0934 0 0
11:55 am 11:55 Mostly Cloudy with Light Rain 43 6.3 29 -1.9 56 56 NNW 8 13 30.2 1023 10 16.0934 0 0
12:15 pm 12:15 Cloudy 45 7 29 -1.9 53 53 W 7 11 30.2 1023 10 16.0934 0 0
12:35 pm 12:35 Cloudy 47 8.3 28 -2 49 49 W 13 20 30.18 1022 10 16.0934 0 0
12:55 pm 12:55 Cloudy 47 8.2 26 -3.6 43 43 W 10 17 30.18 1022 10 16.0934 0 0
1:15 pm 13:15 Cloudy 49 9.3 26 -3.2 42 42 W 16 26 30.18 1022 10 16.0934 0 0
1:35 pm 13:35 Partly Cloudy 49 9.5 26 -3.6 40 40 W 15 24 30.17 1022 10 16.0934 0 0
1:55 pm 13:55 Cloudy 49 9.2 25 -3.8 40 40 W 14 22 30.17 1022 10 16.0934 0 0
2:15 pm 14:15 Cloudy 49 9.5 24 -4.7 37 37 W 15 24 30.16 1021 10 16.0934 0 0
2:35 pm 14:35 Cloudy 49 9.7 23 -5.2 35 35 W 15 24 30.17 1022 10 16.0934 0 0
2:55 pm 14:55 Mostly Cloudy 49 9.4 22 -5.4 35 35 NW 14 22 30.16 1021 10 16.0934 0 0
3:15 pm 15:15 Mostly Cloudy 50 10.1 23 -4.8 35 35 WNW 16 26 30.16 1021 10 16.0934 0 0
3:35 pm 15:35 Cloudy 51 10.4 24 -4.2 36 36 W 14 22 30.16 1021 10 16.0934 0 0
3:55 pm 15:55 Mostly Cloudy 50 9.9 23 -4.8 35 35 NW 15 24 30.16 1021 10 16.0934 0 0
4:15 pm 16:15 Mostly Cloudy 51 10.4 25 -4.1 36 36 NW 10 17 30.15 1021 10 16.0934 0 0
4:35 pm 16:35 Mostly Cloudy 51 10.4 23 -4.9 34 34 WNW 16 26 30.15 1021 10 16.0934 0 0
4:55 pm 16:55 Mostly Cloudy 49 9.7 24 -4.3 37 37 WNW 13 20 30.15 1021 10 16.0934 0 0
5:15 pm 17:15 Partly Cloudy 50 9.9 24 -4.6 36 36 NW 16 26 30.15 1021 10 16.0934 0 0
5:35 pm 17:35 Partly Cloudy 51 10.4 23 -5 34 34 W 12 19 30.15 1021 10 16.0934 0 0
5:55 pm 17:55 Mostly Cloudy 51 10.5 24 -4.2 36 36 WNW 14 22 30.15 1021 10 16.0934 0 0
6:15 pm 18:15 Partly Cloudy 51 10.5 24 -4.4 35 35 W 15 24 30.15 1021 10 16.0934 0 0
6:35 pm 18:35 Sunny 51 10.3 24 -4.4 36 36 W 14 22 30.15 1021 10 16.0934 0 0
6:55 pm 18:55 Partly Cloudy 50 10.2 24 -4.6 35 35 NW 14 22 30.15 1021 10 16.0934 0 0
7:15 pm 19:15 Sunny 50 10 24 -4.7 35 35 WNW 8 13 30.15 1021 10 16.0934 0 0
7:35 pm 19:35 Sunny 49 9.7 24 -4.5 37 37 W 13 20 30.15 1021 10 16.0934 0 0
7:55 pm 19:55 Sunny 48 9 24 -4.3 39 39 W 9 15 30.15 1021 10 16.0934 0 0
8:15 pm 20:15 Sunny 46 7.9 25 -3.8 44 44 W 7 11 30.15 1021 10 16.0934 0 0
8:35 pm 20:35 Clear 46 7.9 25 -3.9 43 43 W 6 9 30.15 1021 10 16.0934 0 0
8:55 pm 20:55 Clear 44 6.7 31 -0.7 60 60 W 3 6 30.16 1021 10 16.0934 0 0
9:15 pm 21:15 Clear 40 4.7 30 -1.1 66 66 W 3 6 30.17 1022 10 16.0934 0 0
9:35 pm 21:35 Clear 38 3.6 32 -0.2 76 76 W 3 6 30.18 1022 10 16.0934 0 0
9:55 pm 21:55 Clear 38 3.5 30 -0.9 73 73 W 3 6 30.19 1022 10 16.0934 0 0
10:15 pm 22:15 Clear 35 1.8 31 -0.7 84 84 Calm 30.19 1022 10 16.0934 0 0
10:35 pm 22:35 Clear 35 1.8 31 -0.6 84 84 Calm 30.2 1023 10 16.0934 0 0
10:55 pm 22:55 Clear 36 2.1 33 0.5 89 89 Calm 30.19 1022 10 16.0934 0 0
11:15 pm 23:15 Clear 35 1.6 33 0.3 91 91 Calm 30.19 1022 10 16.0934 0 0
11:35 pm 23:35 Clear 35 1.6 33 0.3 91 91 Calm 30.19 1022 10 16.0934 0 0
11:55 pm 23:55 Clear 35 1.4 32 0.2 92 92 Calm 30.2 1023 10 16.0934 0 0

Powered by AerisWeather